Regional Weather Roundup
Issued by NWS

Home | Current Version | Previous Version | Text Only | Print | Product List | Glossary Off
Versions: 1 2 3 4 5 6 7 8 9 10 11 12 13 14 15 16 17 18 19 20 21 22 23 24 25 26 27 28 29 30 31 32 33 34 35 36 37 38 39 40 41 42 43 44 45 46 47 48 49 50

050
ASUS43 KDTX 101210
RWRMI
MICHIGAN HOURLY REGIONAL WEATHER ROUNDUP
NATIONAL WEATHER SERVICE DETROIT/PONTIAC MI
700 AM EST WED FEB 10 2016

NOTE: "FAIR" INDICATES FEW OR NO CLOUDS BELOW 12,000 FEET WITH NO
SIGNIFICANT WEATHER AND/OR OBSTRUCTION TO VISIBILITY.

MIZ047>049-052>055-059>063-066>070-074>076-081>083-101300-
SOUTHEAST LOWER MICHIGAN

CITY           SKY/WX    TMP DP  RH WIND       PRES   REMARKS
ADRIAN         MOCLDY    19  11  70 NW9       29.80R WCI   8
6HR MIN TEMP:  19; 6HR MAX TEMP:  24; 6HR PCP: TRACE;

ALMA           CLOUDY    19  13  77 NW9G16    29.79R WCI   7
ANN ARBOR      CLOUDY    18  13  80 W10       29.77R WCI   6
BAD AXE        LGT SNOW  17  14  88 NW12      29.72R WCI   4
CARO           CLOUDY    18  12  79 NW15G22   29.74R VSB 3/4 WCI   3
DETROIT CITY   CLOUDY    21  13  71 NW9G20    29.75R WCI  11
6HR MIN TEMP:  21; 6HR MAX TEMP:  24; 6HR PCP: TRACE;

DETROIT        FLURRIES  21  13  71 W16G22    29.77R WCI   7
6HR MIN TEMP:  21; 6HR MAX TEMP:  24; 6HR PCP: TRACE;

FLINT          LGT SNOW  20  13  74 NW12      29.76R WCI   8
6HR MIN TEMP:  20; 6HR MAX TEMP:  24; 6HR PCP:  0.02;

GROSSE ILE     FLURRIES  23  16  74 W10       29.76R WCI  12
HILLSDALE      FLURRIES  17  13  83 NW12      29.78R WCI   4
6HR MIN TEMP:  17; 6HR MAX TEMP:  21;

HOWELL         LGT SNOW  18  15  85 W12       29.75R WCI   6

CITY           SKY/WX    TMP DP  RH WIND       PRES   REMARKS
JACKSON        MOCLDY    17  10  74 W13       29.78R WCI   4
6HR MIN TEMP:  17; 6HR MAX TEMP:  22; 6HR PCP: TRACE;

LAMBERTVILLE   CLOUDY    21  13  73 NW7       29.80R WCI  12
6HR MIN TEMP:  21; 6HR MAX TEMP:  24;

LANSING        LGT SNOW  18  12  77 NW14      29.79R WCI   4
6HR MIN TEMP:  18; 6HR MAX TEMP:  21; 6HR PCP: TRACE;

LAPEER         LGT SNOW  17  12  82 NW12G20   29.73R WCI   4
6HR MIN TEMP:  17; 6HR MAX TEMP:  21;

MASON          FLURRIES  17  13  82 W12       29.78R WCI   5
MONROE         CLOUDY    22  15  72 NW14      29.78R WCI  10
6HR MIN TEMP:  22; 6HR MAX TEMP:  25;

MT. CLEMENS    LGT SNOW  21  17  84 W15       29.72S WCI   8
6HR MIN TEMP:  21; 6HR MAX TEMP:  24; 6HR PCP: TRACE;

PONTIAC        LGT SNOW  18  13  80 W12       29.72R WCI   5
6HR MIN TEMP:  18; 6HR MAX TEMP:  22; 6HR PCP: TRACE;

PORT HOPE        N/A     18  15  88 NW20G30   29.69R WCI   2
6HR MIN TEMP:  18; 6HR MAX TEMP:  23; 6HR PCP:  1.71;

PORT HURON     FLURRIES  19  16  86 W9        29.72R WCI   9
TRI CITIES     LGT SNOW  17  10  74 NW15      29.78R WCI   2
6HR MIN TEMP:  17; 6HR MAX TEMP:  23; 6HR PCP: TRACE;

MIDLAND        CLOUDY    16   9  74 NW6       29.78R WCI   7
6HR MIN TEMP:  16; 6HR MAX TEMP:  22;

TROY           FLURRIES  22  16  78 W9G20     29.76R WCI  12
SAGINAW HB     CLOUDY    18  12  79 NW12      29.77R WCI   5
$$
MIZ043>046-050>051-056>058-064>065-071>073-077>080-101300-
SOUTHWEST LOWER MICHIGAN

CITY           SKY/WX    TMP DP  RH WIND       PRES   REMARKS
BATTLE CREEK   CLOUDY    18  11  74 NW13      29.82R WCI   5
6HR MIN TEMP:  18; 6HR MAX TEMP:  21; 6HR PCP: TRACE;

BENTON HARBOR  LGT SNOW  20  12  71 NW17G23   29.90R WCI   5
6HR MIN TEMP:  19; 6HR MAX TEMP:  23; 6HR PCP: TRACE;

BIG RAPIDS     CLOUDY    16   9  75 NW8       29.79R WCI   5
6HR MIN TEMP:  16; 6HR MAX TEMP:  19;

COLDWATER      LGT SNOW  18  15  86 W7        29.82R WCI   9
6HR MIN TEMP:  18; 6HR MAX TEMP:  22;

FREMONT        FLURRIES  17  11  78 NW12G20   29.83R WCI   4
HOLLAND        HVY SNOW  18  15  88 N9        29.87R VSB 1/4 WCI   7
6HR MIN TEMP:  19; 6HR MAX TEMP:  20; 6HR PCP:  0.09;

GRAND RAPIDS   FLURRIES  19  13  77 NW12      29.83R WCI   7
6HR MIN TEMP:  19; 6HR MAX TEMP:  21; 6HR PCP: TRACE;

IONIA          CLOUDY    17  11  78 NW9       29.80R WCI   6
6HR MIN TEMP:  17; 6HR MAX TEMP:  21;

KALAMAZOO      LGT SNOW  19  13  77 NW14G23   29.83R VSB 1   WCI   6
6HR MIN TEMP:  19; 6HR MAX TEMP:  21; 6HR PCP: TRACE;

LUDINGTON      FLURRIES  17  10  74 N15G22    29.87R WCI   2
6HR MIN TEMP:  17; 6HR MAX TEMP:  19;

MARSHALL       LGT SNOW  18  14  82 NW9       29.80R WCI   7
6HR MIN TEMP:  18; 6HR MAX TEMP:  22;

MOUNT PLEASANT CLOUDY    18   8  64 NW12G17   29.77R WCI   5
6HR MIN TEMP:  18; 6HR MAX TEMP:  23;

MUSKEGON       FLURRIES  19  10  68 NW15      29.87R WCI   5
6HR MIN TEMP:  19; 6HR MAX TEMP:  20; 6HR PCP: TRACE;

SOUTH HAVEN    FLURRIES  20  13  72 NW13G24   29.87R WCI   8
$$
MIZ016>042-101300-
NORTHERN LOWER MICHIGAN

CITY           SKY/WX    TMP DP  RH WIND       PRES   REMARKS
ALPENA         LGT SNOW  10   5  80 W8        29.75R WCI  -2
6HR MIN TEMP:  10; 6HR MAX TEMP:  19; 6HR PCP:  0.04;

BEAVER ISLAND  PTCLDY    12   2  64 N14G21    29.82S WCI  -3
6HR MIN TEMP:  11; 6HR MAX TEMP:  14;

BELLAIRE       LGT SNOW  13  10  87 N3        29.82R VSB 1
6HR MIN TEMP:  13; 6HR MAX TEMP:  17;

CADILLAC       FLURRIES  13   8  78 NW8G16    29.74R WCI   2
CHARLEVOIX     CLOUDY    14   9  79 N14G21    29.83R WCI  -1
FRANKFORT      FLURRIES  17  10  75 NW14G20   29.85R WCI   2
GAYLORD        CLOUDY     7   0  73 N8        29.73R WCI  -6
6HR MIN TEMP:   7; 6HR MAX TEMP:  13; 6HR PCP: TRACE;

GRAYLING       CLOUDY     9   3  77 NW9       29.75R WCI  -4
6HR MIN TEMP:   9; 6HR MAX TEMP:  16;

HARBOR SPRINGS CLOUDY     9   1  69 NW6       29.81R WCI   0
HOUGHTON LAKE  LGT SNOW  11   4  73 N12       29.75R WCI  -3
6HR MIN TEMP:  11; 6HR MAX TEMP:  17; 6HR PCP: TRACE;

MANISTEE       CLOUDY    18   9  68 NW13G21   29.85R WCI   4
OSCODA         LGT SNOW  11   7  82 MISG      29.74R
6HR MIN TEMP:  11; 6HR MAX TEMP:  19;

PELLSTON       CLOUDY     7   1  76 NW7       29.81R WCI  -5
6HR MIN TEMP:   7; 6HR MAX TEMP:  13; 6HR PCP: TRACE;

ROGERS CITY    LGT SNOW   9   3  77 NW13G20   29.77R WCI  -7
TRAVERSE CITY  FLURRIES  17   6  62 N14G23    29.81R WCI   3
6HR MIN TEMP:  16; 6HR MAX TEMP:  19; 6HR PCP: TRACE;

$$
MIZ007>008-015-101300-
EASTERN UPPER MICHIGAN

CITY           SKY/WX    TMP DP  RH WIND       PRES   REMARKS
KINROSS        CLOUDY     3   0  85 N6        29.79S WCI  -8
6HR MIN TEMP:   3; 6HR MAX TEMP:   7;

MACKINAC ISLAN CLOUDY     6   1  82 N8        29.80R WCI  -7
6HR MIN TEMP:   6; 6HR MAX TEMP:  11;

NEWBERRY       LGT SNOW   8   5  89 N9        29.81R WCI  -6
6HR MIN TEMP:   7; 6HR MAX TEMP:   9;

S. S. MARIE    CLOUDY     2  -6  69 N10       29.80R WCI -14
6HR MIN TEMP:   2; 6HR MAX TEMP:   6; 6HR PCP:  0.01;

MUNISING         N/A     12   5  73 N21       29.87R WCI  -7
6HR MIN TEMP:  11; 6HR MAX TEMP:  14; 6HR PCP:  0.04;

$$
MIZ004>006-011>014-085-101300-
CENTRAL UPPER MICHIGAN

CITY           SKY/WX    TMP DP  RH WIND       PRES   REMARKS
MANISTIQUE     LGT SNOW   9   5  82 NW3       29.84R
6HR MIN TEMP:   8; 6HR MAX TEMP:  12;

ESCANABA       MOCLDY     7  -2  66 NW13G18   29.90S WCI  -9
6HR MIN TEMP:   7; 6HR MAX TEMP:  12;

MENOMINEE      PTCLDY     7  -6  56 NW10      29.94S WCI  -8
6HR MIN TEMP:   7; 6HR MAX TEMP:  10;

SAWYER-GWINN   LGT SNOW   5   0  78 NW16G22   29.85R WCI -14
$$
MIZ001>003-009>011-084-101300-
WESTERN UPPER MICHIGAN

CITY           SKY/WX    TMP DP  RH WIND       PRES   REMARKS
IRON MOUNTAIN  CLEAR      1  -6  72 NW10      29.92R WCI -15
6HR MIN TEMP:   1; 6HR MAX TEMP:   7; 6HR PCP: TRACE;

HOUGHTON       CLOUDY     4  -3  73 N12       29.95R HAZE    WCI -12
6HR MIN TEMP:   4; 6HR MAX TEMP:   6;

COPPER HARBOR    N/A     11   6  81 NE26      29.96S WCI -10
6HR MIN TEMP:   9; 6HR MAX TEMP:  13;

IRONWOOD       CLOUDY     5   1  85 N8        29.96R WCI  -8
6HR MIN TEMP:   5; 6HR MAX TEMP:   7;

$$

ABBREVIATIONS USED IN REMARKS
   TC - TEMPERATURE IN CELSIUS
  WCI - WIND CHILL INDEX
   HX - HEAT INDEX
  VSB - VISIBILITY





USA.gov is the U.S. government's official web portal to all federal, state and local government web resources and services.